Hibbing, MN

11:13 PM CDT on May 27, 2017 (GMT -0500)
Chisholm-hibbing

Weather History for KHIB - June, 2013

Change the Weather History Date:

Thursday, June 20, 2013

  Actual Average Record
Temperature  
Mean Temperature 58 °F -  
Max Temperature 68 °F 72 °F 88 °F (1988)
Min Temperature 51 °F 49 °F 34 °F (1969)
Degree Days  
Heating Degree Days 6    
Growing Degree Days 8 (Base 50)    
Moisture  
Dew Point 58 °F    
Average Humidity 87    
Maximum Humidity 94    
Minimum Humidity 79    
Precipitation  
Precipitation 0.17 in - - ()
Sea Level Pressure  
Sea Level Pressure 30.02 in    
Wind  
Wind Speed 4 mph (SE)    
Max Wind Speed 12 mph    
Max Gust Speed -    
Visibility 9 miles    
Events Rain , Thunderstorm    
Averages and records for this station are not official NWS values.
T = Trace of Precipitation, MM = Missing Value Source: NWS Daily Summary

Daily Weather History Graph

Daily Weather History Graph

Search for Another Location

Airport or City:

Trip Planner

Search our weather history database for the weather conditions in past years. The results will help you decide how hot, cold, wet, or windy it might be!

Date:

Astronomy

Jun. 20, 2013 Rise Set
Actual Time 5:14 AM CDT 9:11 PM CDT
Civil Twilight 4:33 AM CDT 9:52 PM CDT
Nautical Twilight 3:38 AM CDT 10:47 PM CDT
Astronomical Twilight 2:10 AM CDT 12:15 AM CDT
Moon 6:07 PM CDT (6/20) 2:51 AM CDT (6/20)
Length of Visible Light 17h 18m
Length of Day
15h 57m
Waxing Gibbous, 89% of the Moon is Illuminated
Jun 20
Waxing Gibbous
Jun 23
Full
Jun 29
Last Quarter
Jul 8
New
Jul 15
First Quarter

Hourly Weather History & Observations

Time (CDT) Temp. Dew Point Humidity Pressure Visibility Wind Dir Wind Speed Gust Speed Precip Events Conditions
12:53 AM 55.9 °F 52.0 °F 87% 29.98 in 10.0 mi Calm Calm - N/A   Clear
1:53 AM 54.0 °F 51.1 °F 90% 29.98 in 10.0 mi Calm Calm - N/A   Clear
2:53 AM 52.0 °F 50.0 °F 93% 29.99 in 10.0 mi Calm Calm - N/A   Clear
3:25 AM 51.8 °F 50.0 °F 94% 29.99 in 2.5 mi Calm Calm - N/A   Clear
3:34 AM 53.6 °F 50.0 °F 88% 29.98 in 10.0 mi Calm Calm - N/A   Clear
3:53 AM 52.0 °F 50.0 °F 93% 29.99 in 10.0 mi Calm Calm - N/A   Clear
4:53 AM 51.1 °F 48.9 °F 92% 29.97 in 2.5 mi Calm Calm - N/A   Clear
5:08 AM 51.8 °F 48.2 °F 88% 29.98 in 10.0 mi Calm Calm - N/A   Clear
5:53 AM 53.1 °F 50.0 °F 89% 29.98 in 10.0 mi Calm Calm - N/A   Clear
6:53 AM 60.1 °F 55.9 °F 86% 29.98 in 10.0 mi ESE 4.6 mph - 0.01 in Thunderstorm Thunderstorm
7:08 AM 60.8 °F 57.2 °F 88% 29.99 in 10.0 mi ESE 5.8 mph - N/A   Overcast
7:32 AM 62.6 °F 57.2 °F 82% 29.99 in 10.0 mi ESE 6.9 mph - N/A Thunderstorm Scattered Clouds
7:53 AM 64.0 °F 59.0 °F 84% 30.00 in 10.0 mi SE 5.8 mph - N/A   Scattered Clouds
8:53 AM 66.9 °F 60.1 °F 79% 30.01 in 10.0 mi SSE 8.1 mph - N/A   Partly Cloudy
9:18 AM 66.2 °F 60.8 °F 83% 30.03 in 10.0 mi SE 6.9 mph - 0.06 in Thunderstorm Overcast
9:42 AM 66.2 °F 60.8 °F 83% 30.05 in 5.0 mi SSE 5.8 mph - 0.08 in Rain Light Rain
9:53 AM 64.9 °F 61.0 °F 87% 30.05 in 7.0 mi SE 3.5 mph - 0.08 in Rain Light Rain
10:50 AM 64.4 °F 60.8 °F 88% 30.07 in 10.0 mi SE 4.6 mph - 0.00 in   Mostly Cloudy
10:53 AM 64.9 °F 61.0 °F 87% 30.08 in 9.0 mi SE 4.6 mph - 0.01 in Rain Light Rain
11:02 AM 64.4 °F 60.8 °F 88% 30.07 in 3.0 mi ESE 3.5 mph - 0.02 in Rain Rain
11:12 AM 64.4 °F 62.6 °F 94% 30.06 in 4.0 mi ENE 4.6 mph - 0.03 in Rain Rain
11:53 AM 64.9 °F 62.1 °F 90% 30.05 in 9.0 mi East 8.1 mph - 0.04 in Rain Light Rain
12:53 PM 66.0 °F 62.1 °F 87% 30.05 in 8.0 mi ESE 4.6 mph - 0.01 in Rain Light Rain
1:12 PM 66.2 °F 62.6 °F 88% 30.04 in 8.0 mi SE 9.2 mph - 0.01 in Rain Light Rain
1:53 PM 66.0 °F 62.1 °F 87% 30.04 in 10.0 mi SE 6.9 mph - 0.02 in Rain Light Rain
2:04 PM 66.2 °F 62.6 °F 88% 30.02 in 10.0 mi ESE 8.1 mph - 0.00 in   Overcast
2:53 PM 66.0 °F 62.1 °F 87% 30.05 in 10.0 mi SSE 6.9 mph - 0.00 in Rain Light Rain
3:09 PM 66.2 °F 62.6 °F 88% 30.04 in 10.0 mi SE 8.1 mph - 0.00 in Rain Light Rain
3:53 PM 66.9 °F 62.1 °F 84% 30.05 in 10.0 mi SE 9.2 mph - 0.00 in Rain Light Rain
4:53 PM 66.9 °F 62.1 °F 84% 30.04 in 10.0 mi SE 11.5 mph - 0.00 in   Overcast
5:53 PM 66.0 °F 60.1 °F 81% 30.06 in 10.0 mi Variable 3.5 mph - N/A   Overcast
6:11 PM 66.2 °F 60.8 °F 83% 30.03 in 10.0 mi East 9.2 mph - 0.00 in Rain Light Rain
6:18 PM 66.2 °F 60.8 °F 83% 30.03 in 10.0 mi ESE 8.1 mph - 0.00 in   Overcast
6:38 PM 66.2 °F 60.8 °F 83% 30.05 in 10.0 mi North 6.9 mph - 0.00 in   Overcast
6:53 PM 66.0 °F 60.1 °F 81% 30.04 in 10.0 mi ESE 3.5 mph - 0.00 in   Overcast
7:08 PM 66.2 °F 60.8 °F 83% 30.03 in 10.0 mi Calm Calm - N/A   Overcast
7:53 PM 66.0 °F 60.1 °F 81% 30.04 in 10.0 mi ENE 4.6 mph - N/A   Overcast
8:53 PM 64.0 °F 60.1 °F 87% 30.03 in 10.0 mi ESE 6.9 mph - N/A   Partly Cloudy
9:53 PM 62.1 °F 59.0 °F 90% 30.03 in 10.0 mi SE 8.1 mph - N/A   Partly Cloudy
10:14 PM 62.6 °F 59.0 °F 88% 30.02 in 10.0 mi ESE 5.8 mph - N/A   Scattered Clouds
10:25 PM 62.6 °F 59.0 °F 88% 30.01 in 10.0 mi SE 9.2 mph - N/A   Mostly Cloudy
10:53 PM 62.1 °F 59.0 °F 90% 29.99 in 10.0 mi SE 11.5 mph - N/A   Overcast
11:06 PM 62.6 °F 59.0 °F 88% 29.98 in 10.0 mi SE 10.4 mph - N/A   Overcast
11:53 PM 63.0 °F 60.1 °F 90% 29.98 in 10.0 mi SE 10.4 mph - N/A   Overcast